www.pogodaiklimat.ru

Погода и климат >> Архив погоды >> Индия >> Мадхья-Прадеш >> Джабалпер


ПОГОДА в Джабалпере

  • Прогноз погоды в Джабалпере
  • Монитор погоды в Джабалпере

АРХИВ ПОГОДЫ в Джабалпере

Время (UTC), дата Ветер
(напр.,м/с)
 
Видим.   Явления Облачность Т
(С)
Тd
(С)
f
(%)
Тe
(С)
Тes
(С)
Комфортность P
(гПа)
Po
(гПа)
Тmin
(С)
Tmax
(С)
R
(мм)
R24
(мм)
S
(см)
18 19.05 штиль 0 4000 м ясно +29.8 +15.6 42 +33 +33 душно 1007.1 963.4
21 19.05 штиль 0 4000 м ясно +26.9 +14.9 48 +30 +30 душно 1006.3 962.2
00 20.05 штиль 0 4000 м мгла 4/4 750 м
[Cu Sc]
+26.8 +14.9 48 +29 +29 жарко 1007.2 963.1
03 20.05 З 1 4000 м мгла ясно +35.0 +14.3 29 +36 +47 очень
жарко
1007.4 964.4 +26.1
06 20.05 З 1 4000 м ясно +39.6 +11.5 19 +39 +64 опасность
солнечного
удара
1006.7 964.4
09 20.05 С 1 4000 м 3/3 900 м
[Cu hum]
+41.4 +13.1 19 +41 +54 опасность
перегрева
1003.3 961.4
12 20.05 СЗ 1 4000 м 3/3 900 м
[Cu hum]
+40.6 +12.2 19 +40 +42 очень
жарко
1001.6 959.6 +41.8
15 20.05 штиль 0 4000 м ясно +33.2 +15.2 34 +35 +35 душно 1004.5 961.4
18 20.05 штиль 0 4000 м ясно +30.0 +14.2 38 +32 +32 жарко 1005.9 962.3
21 20.05 штиль 0 4000 м ясно +26.8 +14.9 48 +29 +29 жарко 1006.1 962.0
00 21.05 штиль 0 4000 м мгла 3/0
[]
+25.6 +14.2 49 +28 +28 жарко 1005.8 961.6
03 21.05 штиль 0 4000 м мгла ясно +35.0 +12.4 26 +35 +47 очень
жарко
1005.9 963.0 +25.3
06 21.05 Ю 1 4000 м ясно +41.0 +10.1 16 +40 +67 опасность
солнечного
удара
1004.8 962.7
09 21.05 З 1 4000 м 3/3 900 м
[Cu hum]
+43.4 +12.5 16 +43 +56 опасность
перегрева
1001.9 960.3
12 21.05 СЗ 1 4000 м 1/1 900 м
[Cu hum]
+42.8 +12.4 17 +42 +44 опасность
перегрева
999.9 958.3 +43.8
15 21.05 штиль 0 4000 м ясно +34.4 +14.8 31 +36 +36 душно 1002.9 960.0
18 21.05 штиль 0 4000 м 5/0
[Ac trans]
+32.0 +17.3 41 +36 +36 очень
душно
1004.0 960.8
21 21.05 штиль 0 4000 м 5/0
[Ac trans]
+30.0 +17.4 47 +34 +34 очень
душно
1005.2 961.6
00 22.05 штиль 0 4000 м 5/0
[Ac trans]
+29.0 +18.1 52 +34 +34 очень
душно
1005.1 961.4
03 22.05 ЮЗ 1 4000 м мгла ясно +35.4 +14.0 28 +36 +47 очень
жарко
1003.0 960.3 +28.4
06 22.05 ЮЗ 1 4000 м ясно +40.6 +14.2 21 +41 +66 опасность
перегрева
1002.1 960.1
09 22.05 З 3 4000 м 3/3 900 м
[Cu hum]
+44.0 +12.5 16 +44 +53 опасность
перегрева
999.5 958.1
12 22.05 З 2 4000 м 3/3 900 м
[Cu hum]
+42.0 +14.1 20 +43 +44 опасность
перегрева
998.4 956.7 +44.4
15 22.05 З 1 4000 м ясно +37.4 +14.3 25 +38 +38 душно 1000.7 958.3
18 22.05 З 1 4000 м ясно +35.0 +13.8 28 +36 +36 очень
жарко
1001.9 959.2
21 22.05 З 1 4000 м ясно +32.0 +14.4 34 +34 +34 душно 1001.3 958.2
00 23.05 З 1 4000 м 1/0
[Ci fib]
+30.0 +14.6 39 +32 +32 жарко 1002.9 959.4
03 23.05 З 3 4000 м ясно +35.0 +14.8 30 +36 +44 очень
жарко
1003.4 960.6 +29.8
06 23.05 З 3 4000 м ясно +42.0 +15.6 22 +43 +61 опасность
перегрева
1002.0 960.2
09 23.05 З 2 4000 м 4/1 900 м
[Cu hum Ci fib]
+43.4 +14.1 18 +44 +57 опасность
перегрева
1000.1 958.6
12 23.05 З 3 4000 м ясно +42.2 +14.5 20 +43 +45 опасность
перегрева
999.6 957.9 +44.0
15 23.05 ЮЗ 2 4000 м ясно +37.4 +12.9 23 +37 +37 очень
жарко
1000.0 957.7
18 23.05 ЮЗ 2 4000 м мгла ясно +35.0 +13.4 27 +35 +35 очень
жарко
1001.2 958.5
21 23.05 штиль 0 4000 м ясно +33.2 +13.9 31 +34 +34 очень
жарко
1000.6 957.7
00 24.05 штиль 0 4000 м мгла 4/0
[Ac trans Ci fib]
+31.6 +14.7 36 +34 +34 душно 1002.4 959.2
03 24.05 З 4 4000 м ясно +35.4 +16.7 33 +38 +44 очень
душно
1003.3 960.6 +31.2
06 24.05 СЗ 3 4000 м ясно +41.0 +17.2 25 +43 +63 опасность
перегрева
1002.2 960.3
09 24.05 З 2 4000 м ясно +43.0 +15.8 21 +45 +60 опасность
перегрева
1000.6 959.0
12 24.05 З 3 4000 м 1/1 750 м
[Sc diur, vesp]
+40.8 +18.2 27 +44 +46 опасность
перегрева
999.2 957.4 +43.4
15 24.05 ЮВ 49 н/о мгла 4/1 900 м
[Cu hum]
+37.8 +18.0 31 +41 +41 опасность
перегрева
1002.1 959.7
18 24.05 З 1 4000 м 1/1 900 м
[Cu hum]
+35.4 +18.7 37 +40 +40 очень
душно
1001.6 958.9
21 24.05 З 2 4000 м 5/5 900 м
[Cu hum]
+33.6 +17.8 39 +37 +37 очень
душно
1000.8 957.9
00 25.05 З 1 4000 м ясно +31.4 +15.3 38 +34 +34 душно 1002.7 959.4
03 25.05 штиль 0 4000 м мгла ясно +34.4 +18.5 39 +39 +51 опасность
солнечного
удара
1004.5 961.6 +30.2
06 25.05 В 1 4000 м 1/1 750 м
[Sc]
+39.0 +18.9 31 +43 +66 опасность
перегрева
1003.1 960.9
09 25.05 СВ 2 4000 м 3/3 900 м
[Cu hum]
+40.4 +19.7 30 +45 +57 опасность
перегрева
999.9 958.0
12 25.05 СЗ 1 4000 м 3/3 900 м
[Cu hum]
+40.8 +17.6 26 +44 +45 опасность
перегрева
998.3 956.5 +41.7
15 25.05 штиль 0 4000 м ясно +35.0 +18.1 37 +39 +39 очень
душно
1000.7 958.0
18 25.05 штиль 0 4000 м 5/0
[Ac trans]
+31.6 +18.3 45 +36 +36 очень
душно
1002.6 959.4
21 25.05 штиль 0 4000 м 5/0
[Ac trans]
+30.4 +17.9 47 +35 +35 очень
душно
1001.9 958.5
00 26.05 штиль 0 4000 м мгла ясно +29.4 +17.8 50 +34 +34 очень
душно
1003.6 960.0
03 26.05 СВ 1 4000 м мгла ясно +34.6 +13.2 28 +35 +46 очень
жарко
1002.8 960.0 +26.7
06 26.05 штиль 0 4000 м 3/0
[Ac trans]
+40.0 +11.1 18 +39 +63 опасность
солнечного
удара
1002.3 960.2
09 26.05 СЗ 2 4000 м 5/5 900 м
[Cu hum]
+43.0 +10.5 15
12 26.05 СВ 1 4000 м 3/3 900 м
[Cu hum]
+41.0 +12.4 18 +40 +42 очень
жарко
999.0 957.2 +43.0
15 26.05 штиль 0 4000 м 3/3 750 м
[Sc]
+34.0 +15.5 33 +36 +36 душно 1001.6 958.7

 

Местоположение метеостанции Джабалпер (Мадхья-Прадеш, Индия): широта 23.20 долгота 79.95 высота над уровнем моря 393 м.

В архиве по умолчанию представлена погода в Джабалпере за последнюю неделю. Архивные данные за месяц целиком и за предыдущие месяцы, начиная с января 2011 года, Вы можете получить, выбрав интересующий диапазон дат из раскрывающегося списка и нажав кнопку "Ввод!".


*Определитесь, кто Вы:
робот инопланетянин человек

Внимание! Время в таблицах - всемирное. Для получения местного времени необходимо прибавить поправку, которая равна 5.5 ч.

Смотрите также архив погоды в соседних городах и на ближайших метеорологических станциях:

Погода в Мандле (Мадхья-Прадеш, Индия) (81 км)
Погода в Нарсингпуре (Мадхья-Прадеш, Индия) (84 км)
Погода в Дамо (Мадхья-Прадеш, Индия) (87 км)
Погода в Умарии (Мадхья-Прадеш, Индия) (102 км)
Погода в Сеони (Мадхья-Прадеш, Индия) (131 км)
Погода в Сагаре (Мадхья-Прадеш, Индия) (142 км)
Погода в Малейнджкханде (Мадхья-Прадеш, Индия) (154 км)
Погода в Чхиндваре (Мадхья-Прадеш, Индия) (156 км)
Погода в Пачмарае (Мадхья-Прадеш, Индия) (176 км)
Погода в Сатне (Мадхья-Прадеш, Индия) (177 км)

Пояснения к столбцам:

Ветер - указаны скорость ветра в м/с - средняя за 10 мин, порывы в срок и между сроками (в фигурных скобках) и направление, откуда дует ветер: С - северный, СВ - северо-восточный, В - восточный, ЮВ - юго-восточный, Ю - южный, ЮЗ - юго-западный, З - западный, СЗ - северо-западный.
Видимость - горизонтальная дальность видимости в метрах или километрах. При видимости от 1 до 10 км при отсутствии осадков обычно наблюдается дымка, при ухудшении видимости до 1 км и менее - туман. В сухую погоду видимость может ухудшаться дымом, пылью или мглою.
Явления - указаны атмосферные явления, наблюдавшиеся в срок или в последний час перед сроком; фигурными скобками обозначены явления, наблюдавшиеся между сроками (за 1-3 часа до срока); квадратными скобками обозначены град или гололедные отложения с указанием их диаметра в мм.
Облачность - указаны через наклонную черту общая и нижняя облачность в баллах и высота нижней границы облаков в метрах; квадратными скобками обозначены формы облаков: Ci - перистые, Cs - перисто-слоистые, Cc - перисто-кучевые, Ac - высококучевые, As - высокослоистые, Sc - слоисто-кучевые, Ns - слоисто-дождевые, Cu - кучевые, Cb - кучево-дождевые. Подробнее классификацию облаков см. в Атласе облаков (PDF).
T - Температура воздуха - температура, измеренная на высоте 2 м над землей.
Td - Температура точки росы - температура, при понижении до которой содержащийся в воздухе водяной пар достигнет насыщения.
f - Относительная влажность воздуха - влажноcть воздуха, измеренная на высоте 2 м над землей.
Te - Эффективная температура - температура, которую ощущает одетый по сезону человек в тени. Характеристика душности погоды. При расчете учитывается влияние влажности воздуха и скорости ветра на теплоощущения человека.
Tes - Эффективная температура на солнце - температура, которую ощущает человек, с поправкой на солнечный нагрев. Характеристика знойности погоды. Зависит от высоты солнца над горизонтом, облачности и скорости ветра. Ночью, в пасмурную погоду, а также при ветре 12 м/с и более поправка равна нулю.
P - Атмосферное давление - приведенное к уровню моря атмосферное давление.
Po - Атмосферное давление - измеренное на уровне метеостанции атмосферное давление.
Tmin - Минимальная температура - минимум температуры воздуха на высоте 2 м над землей.
Tmax - Максимальная температура - максимум температуры воздуха на высоте 2 м над землей.
R - Количество осадков - Количество выпавших осадков за период времени, мм. При наведении курсора мыши на число - период времени, за который выпало указанное количество осадков.
R24 - Количество осадков - Количество выпавших осадков за 24 часа, мм.
S - Снежный покров - Высота снежного покрова, см. При наведении курсора мыши на число - состояние снежного покрова и степень покрытия местности в баллах.